| time (UTC) | temp F | wind direction | speed MPH | gust MPH | rain 1hr in | rain 24hr in | rain mn in | humidity % | barometer mb |
| 20260506003122 | 70 | 168 | 9.0 | 10.0 | 0.00 | 0.00 | 0.00 | 62 | 1014.3 |
| 20260506002120 | 70 | 181 | 5.0 | 7.0 | 0.00 | 0.00 | 0.00 | 62 | 1014.2 |
| 20260506001119 | 71 | 168 | 5.0 | 7.0 | 0.00 | 0.00 | 0.00 | 61 | 1014.1 |
| 20260506000119 | 72 | 167 | 6.0 | 7.0 | 0.00 | 0.00 | 0.00 | 59 | 1013.9 |
| 20260505235120 | 73 | 190 | 8.0 | 11.0 | 0.00 | 0.00 | 0.00 | 57 | 1013.9 |
| 20260505234119 | 74 | 178 | 7.0 | 10.0 | 0.00 | 0.00 | 0.00 | 57 | 1013.9 |
| 20260505233114 | 74 | 165 | 7.0 | 8.0 | 0.00 | 0.00 | 0.00 | 57 | 1013.8 |
| 20260505232114 | 75 | 182 | 7.0 | 10.0 | 0.00 | 0.00 | 0.00 | 56 | 1013.8 |
| 20260505231110 | 75 | 166 | 9.0 | 11.0 | 0.00 | 0.00 | 0.00 | 56 | 1013.9 |
| 20260505230109 | 76 | 166 | 12.0 | 15.0 | 0.00 | 0.00 | 0.00 | 54 | 1013.5 |
| 20260505225108 | 75 | 212 | 8.0 | 14.0 | 0.00 | 0.00 | 0.00 | 53 | 1014.0 |
| 20260505224107 | 76 | 185 | 7.0 | 11.0 | 0.00 | 0.00 | 0.00 | 53 | 1013.8 |
| 20260505223107 | 77 | 191 | 11.0 | 14.0 | 0.00 | 0.00 | 0.00 | 51 | 1013.9 |
| 20260505222105 | 78 | 201 | 9.0 | 9.0 | 0.00 | 0.00 | 0.00 | 51 | 1013.8 |
| 20260505221104 | 78 | 169 | 10.0 | 11.0 | 0.00 | 0.00 | 0.00 | 50 | 1013.9 |
| 20260505220100 | 78 | 183 | 12.0 | 13.0 | 0.00 | 0.00 | 0.00 | 49 | 1013.9 |
| 20260505215055 | 79 | 203 | 11.0 | 14.0 | 0.00 | 0.00 | 0.00 | 49 | 1013.8 |
| 20260505214055 | 79 | 201 | 8.0 | 9.0 | 0.00 | 0.00 | 0.00 | 49 | 1013.6 |
| 20260505213055 | 79 | 174 | 11.0 | 15.0 | 0.00 | 0.00 | 0.00 | 48 | 1013.8 |
| 20260505212055 | 79 | 177 | 10.0 | 14.0 | 0.00 | 0.00 | 0.00 | 49 | 1013.9 |
| 20260505211055 | 78 | 198 | 14.0 | 17.0 | 0.00 | 0.00 | 0.00 | 49 | 1014.0 |
| 20260505210054 | 79 | 189 | 7.0 | 11.0 | 0.00 | 0.00 | 0.00 | 50 | 1014.0 |
| 20260505205049 | 79 | 154 | 13.0 | 18.0 | 0.00 | 0.00 | 0.00 | 49 | 1013.8 |
| 20260505204049 | 79 | 212 | 11.0 | 14.0 | 0.00 | 0.00 | 0.00 | 47 | 1014.0 |
| 20260505203049 | 80 | 170 | 9.0 | 11.0 | 0.00 | 0.00 | 0.00 | 48 | 1013.7 |
| 20260505202046 | 79 | 189 | 7.0 | 11.0 | 0.00 | 0.00 | 0.00 | 50 | 1014.2 |
| 20260505201041 | 80 | 188 | 9.0 | 13.0 | 0.00 | 0.00 | 0.00 | 46 | 1014.1 |
| 20260505200036 | 80 | 197 | 9.0 | 13.0 | 0.00 | 0.00 | 0.00 | 48 | 1014.5 |
| 20260505195035 | 78 | 196 | 8.0 | 11.0 | 0.00 | 0.00 | 0.00 | 50 | 1014.6 |
| 20260505194033 | 79 | 193 | 6.0 | 10.0 | 0.00 | 0.00 | 0.00 | 52 | 1014.9 |
| 20260505193028 | 79 | 147 | 6.0 | 10.0 | 0.00 | 0.00 | 0.00 | 50 | 1014.9 |
| 20260505192024 | 79 | 133 | 11.0 | 13.0 | 0.00 | 0.00 | 0.00 | 49 | 1015.0 |
| 20260505191020 | 79 | 182 | 9.0 | 11.0 | 0.00 | 0.00 | 0.00 | 48 | 1015.4 |
| 20260505190016 | 79 | 179 | 10.0 | 15.0 | 0.00 | 0.00 | 0.00 | 50 | 1015.5 |
| 20260505185015 | 78 | 139 | 9.0 | 10.0 | 0.00 | 0.00 | 0.00 | 51 | 1015.6 |
| 20260505184015 | 78 | 181 | 8.0 | 13.0 | 0.00 | 0.00 | 0.00 | 52 | 1015.5 |
| 20260505183015 | 78 | 183 | 10.0 | 13.0 | 0.00 | 0.00 | 0.00 | 50 | 1015.6 |
| 20260505182014 | 79 | 193 | 7.0 | 11.0 | 0.00 | 0.00 | 0.00 | 48 | 1015.9 |
| 20260505181014 | 79 | 195 | 11.0 | 14.0 | 0.00 | 0.00 | 0.00 | 47 | 1015.8 |
| 20260505180014 | 79 | 185 | 10.0 | 13.0 | 0.00 | 0.00 | 0.00 | 53 | 1016.0 |
| 20260505175012 | 78 | 182 | 4.0 | 10.0 | 0.00 | 0.00 | 0.00 | 54 | 1016.0 |
| 20260505174010 | 78 | 168 | 9.0 | 15.0 | 0.00 | 0.00 | 0.00 | 53 | 1016.0 |
| 20260505173009 | 77 | 273 | 5.0 | 10.0 | 0.00 | 0.00 | 0.00 | 52 | 1016.1 |
| 20260505172008 | 78 | 172 | 7.0 | 11.0 | 0.00 | 0.00 | 0.00 | 51 | 1016.3 |
| 20260505171007 | 77 | 187 | 7.0 | 14.0 | 0.00 | 0.00 | 0.00 | 55 | 1016.1 |
| 20260505170006 | 76 | 240 | 5.0 | 13.0 | 0.00 | 0.00 | 0.00 | 56 | 1016.2 |
| 20260505165003 | 77 | 177 | 8.0 | 13.0 | 0.00 | 0.00 | 0.00 | 55 | 1016.2 |
| 20260505164003 | 76 | 235 | 7.0 | 11.0 | 0.00 | 0.00 | 0.00 | 53 | 1016.2 |
| 20260505163001 | 76 | 181 | 11.0 | 15.0 | 0.00 | 0.00 | 0.00 | 53 | 1016.4 |
| 20260505161959 | 75 | 240 | 7.0 | 9.0 | 0.00 | 0.00 | 0.00 | 58 | 1016.6 |
| 20260505160959 | 75 | 155 | 8.0 | 9.0 | 0.00 | 0.00 | 0.00 | 57 | 1016.8 |
| 20260505152957 | 73 | 254 | 9.0 | 14.0 | 0.00 | 0.00 | 0.00 | 61 | 1017.2 |
| 20260505151955 | 73 | 221 | 7.0 | 13.0 | 0.00 | 0.00 | 0.00 | 61 | 1017.0 |
| 20260505150954 | 73 | 204 | 9.0 | 13.0 | 0.00 | 0.00 | 0.00 | 60 | 1016.8 |
| 20260505124920 | 64 | 183 | 6.0 | 8.0 | 0.00 | 0.00 | 0.00 | 75 | 1017.1 |
| 20260505123919 | 63 | 218 | 7.0 | 8.0 | 0.00 | 0.00 | 0.00 | 76 | 1017.2 |
| 20260505122917 | 63 | 217 | 7.0 | 9.0 | 0.00 | 0.00 | 0.00 | 76 | 1017.3 |
| 20260505121917 | 62 | 217 | 5.0 | 7.0 | 0.00 | 0.00 | 0.00 | 77 | 1017.0 |
| 20260505120916 | 61 | 219 | 4.0 | 6.0 | 0.00 | 0.00 | 0.00 | 78 | 1016.9 |
| 20260505115911 | 60 | 226 | 3.0 | 6.0 | 0.00 | 0.00 | 0.00 | 79 | 1016.9 |
| 20260505114906 | 60 | 203 | 5.0 | 6.0 | 0.00 | 0.00 | 0.00 | 79 | 1016.8 |
| 20260505113904 | 59 | 185 | 3.0 | 3.0 | 0.00 | 0.00 | 0.00 | 82 | 1016.8 |
| 20260505112902 | 58 | 191 | 3.0 | 3.0 | 0.00 | 0.00 | 0.00 | 83 | 1016.7 |
| 20260505111902 | 57 | 193 | 4.0 | 5.0 | 0.00 | 0.00 | 0.00 | 85 | 1016.5 |
| 20260505110859 | 56 | 198 | 1.0 | 2.0 | 0.00 | 0.00 | 0.00 | 88 | 1016.6 |
| 20260505101850 | 55 | 191 | 3.0 | 5.0 | 0.00 | 0.00 | 0.00 | 86 | 1015.9 |
| 20260505100847 | 55 | 191 | 3.0 | 3.0 | 0.00 | 0.00 | 0.00 | 85 | 1015.7 |
| 20260505095845 | 55 | 210 | 2.0 | 2.0 | 0.00 | 0.00 | 0.00 | 84 | 1015.6 |
| 20260505094844 | 56 | 221 | 4.0 | 5.0 | 0.00 | 0.00 | 0.00 | 84 | 1015.5 |
| 20260505093843 | 56 | 212 | 4.0 | 6.0 | 0.00 | 0.00 | 0.00 | 82 | 1015.6 |
| 20260505092838 | 56 | 214 | 3.0 | 3.0 | 0.00 | 0.00 | 0.00 | 81 | 1015.4 |
| 20260505091838 | 57 | 213 | 4.0 | 6.0 | 0.00 | 0.00 | 0.00 | 80 | 1015.6 |
| 20260505090834 | 57 | 216 | 2.0 | 5.0 | 0.00 | 0.00 | 0.00 | 80 | 1015.4 |
| 20260505085829 | 57 | 224 | 3.0 | 5.0 | 0.00 | 0.00 | 0.00 | 79 | 1015.1 |
| 20260505084825 | 57 | 232 | 3.0 | 3.0 | 0.00 | 0.00 | 0.00 | 79 | 1015.3 |
| 20260505083820 | 58 | 221 | 5.0 | 7.0 | 0.00 | 0.00 | 0.00 | 77 | 1015.1 |
| 20260505082820 | 58 | 217 | 3.0 | 6.0 | 0.00 | 0.00 | 0.00 | 77 | 1015.3 |
| 20260505081819 | 58 | 233 | 3.0 | 5.0 | 0.00 | 0.00 | 0.00 | 77 | 1015.2 |
| 20260505080818 | 59 | 213 | 3.0 | 7.0 | 0.00 | 0.00 | 0.00 | 75 | 1015.2 |
| 20260505075815 | 59 | 213 | 5.0 | 6.0 | 0.00 | 0.00 | 0.00 | 76 | 1015.0 |
| 20260505074815 | 59 | 204 | 2.0 | 6.0 | 0.00 | 0.00 | 0.00 | 76 | 1015.0 |
| 20260505073810 | 59 | 178 | 4.0 | 6.0 | 0.00 | 0.00 | 0.00 | 75 | 1015.2 |
| 20260505072810 | 59 | 218 | 3.0 | 6.0 | 0.00 | 0.00 | 0.00 | 75 | 1015.1 |
| 20260505071808 | 59 | 228 | 5.0 | 8.0 | 0.00 | 0.00 | 0.00 | 74 | 1014.9 |
| 20260505070803 | 60 | 221 | 3.0 | 7.0 | 0.00 | 0.00 | 0.00 | 74 | 1014.9 |
| 20260505065800 | 60 | 211 | 4.0 | 7.0 | 0.00 | 0.00 | 0.00 | 74 | 1015.0 |
| 20260505064800 | 59 | 213 | 6.0 | 9.0 | 0.00 | 0.00 | 0.00 | 74 | 1014.9 |
| 20260505063755 | 60 | 219 | 5.0 | 8.0 | 0.00 | 0.00 | 0.00 | 74 | 1014.8 |
| 20260505062754 | 60 | 188 | 7.0 | 8.0 | 0.00 | 0.00 | 0.00 | 73 | 1015.1 |
| 20260505061754 | 60 | 228 | 5.0 | 9.0 | 0.00 | 0.00 | 0.00 | 74 | 1015.1 |
| 20260505060749 | 60 | 210 | 4.0 | 7.0 | 0.00 | 0.00 | 0.00 | 73 | 1015.1 |
| 20260505055747 | 60 | 196 | 5.0 | 8.0 | 0.00 | 0.00 | 0.00 | 73 | 1015.2 |
| 20260505054747 | 60 | 196 | 6.0 | 8.0 | 0.00 | 0.00 | 0.00 | 73 | 1015.2 |
| 20260505053743 | 60 | 219 | 5.0 | 9.0 | 0.00 | 0.00 | 0.00 | 73 | 1015.4 |
| 20260505052742 | 60 | 200 | 5.0 | 6.0 | 0.00 | 0.00 | 0.00 | 73 | 1015.4 |
| 20260505051742 | 61 | 211 | 7.0 | 9.0 | 0.00 | 0.00 | 0.00 | 72 | 1015.5 |
| 20260505050738 | 61 | 204 | 6.0 | 7.0 | 0.00 | 0.00 | 0.00 | 73 | 1015.3 |
| 20260505041734 | 62 | 180 | 7.0 | 8.0 | 0.00 | 0.00 | 0.00 | 70 | 1015.3 |
| 20260505040734 | 62 | 188 | 7.0 | 8.0 | 0.00 | 0.00 | 0.00 | 70 | 1015.4 |
| 20260505035734 | 62 | 189 | 4.0 | 7.0 | 0.00 | 0.00 | 0.00 | 71 | 1015.4 |
| 20260505034733 | 62 | 197 | 8.0 | 11.0 | 0.00 | 0.00 | 0.00 | 68 | 1015.2 |
| 20260505033732 | 62 | 195 | 7.0 | 10.0 | 0.00 | 0.00 | 0.00 | 69 | 1015.4 |
| 20260505032728 | 62 | 196 | 5.0 | 9.0 | 0.00 | 0.00 | 0.00 | 68 | 1015.2 |
| 20260505031727 | 63 | 190 | 5.0 | 7.0 | 0.00 | 0.00 | 0.00 | 68 | 1015.3 |
| 20260505030726 | 63 | 185 | 5.0 | 7.0 | 0.00 | 0.00 | 0.00 | 68 | 1015.3 |
| 20260505025723 | 63 | 203 | 5.0 | 9.0 | 0.00 | 0.00 | 0.00 | 67 | 1015.3 |
| 20260505024720 | 63 | 181 | 9.0 | 14.0 | 0.00 | 0.00 | 0.00 | 66 | 1015.2 |
| 20260505023720 | 64 | 198 | 7.0 | 9.0 | 0.00 | 0.00 | 0.00 | 66 | 1015.3 |
| 20260505022715 | 64 | 199 | 6.0 | 9.0 | 0.00 | 0.00 | 0.00 | 66 | 1015.3 |
| 20260505021714 | 64 | 171 | 7.0 | 10.0 | 0.00 | 0.00 | 0.00 | 66 | 1015.2 |
| 20260505020712 | 65 | 200 | 10.0 | 11.0 | 0.00 | 0.00 | 0.00 | 65 | 1015.1 |
| 20260505015711 | 65 | 197 | 6.0 | 10.0 | 0.00 | 0.00 | 0.00 | 66 | 1015.1 |
| 20260505014711 | 66 | 168 | 9.0 | 9.0 | 0.00 | 0.00 | 0.00 | 65 | 1014.9 |
| 20260505013710 | 66 | 203 | 7.0 | 9.0 | 0.00 | 0.00 | 0.00 | 65 | 1015.0 |
| 20260505012706 | 66 | 186 | 6.0 | 7.0 | 0.00 | 0.00 | 0.00 | 64 | 1014.7 |
| 20260505011704 | 68 | 204 | 6.0 | 7.0 | 0.00 | 0.00 | 0.00 | 62 | 1014.5 |
| 20260505010702 | 68 | 172 | 7.0 | 9.0 | 0.00 | 0.00 | 0.00 | 61 | 1014.2 |
| 20260505005701 | 68 | 166 | 9.0 | 10.0 | 0.00 | 0.00 | 0.00 | 60 | 1013.9 |
| 20260505004701 | 68 | 174 | 6.0 | 7.0 | 0.00 | 0.00 | 0.00 | 58 | 1013.8 |
| 20260505003701 | 69 | 188 | 11.0 | 14.0 | 0.00 | 0.00 | 0.00 | 54 | 1013.7 |